Flag for U.S.A. Weather past 2 weeks in Milwaukee, Wisconsin, U.S.A.

Now
79 °F

Sunny.


Feels Like: 80 °F
Forecast: 63 / 82 °F
Wind: 6 mph from East

Location: Milwaukee / Timmerman

Current Time: Jul 26, 2014 at 2:18:54 PM

Latest Report: Jul 26, 2014 at 1:45 PM


Visibility: 10 mi

Pressure: 29.81 "Hg

Humidity: 54%

Dew point: 61 °F

Location of MilwaukeeLocation

Historic Weather in Milwaukee — Graph

°F

Milwaukee temperature yesterday

Maximum temperature yesterday: 73 °F (at 5:45 PM)
Minimum temperature yesterday: 55 °F (at 2:15 AM)
Average temperature yesterday: 64 °F

Past Weeks' High & Low Weather Summary

 TemperatureHumidityPressure
High88 °F (Jul 22, 5:45 PM)94% (Jul 13, 2:55 AM)30.21 "Hg (Jul 13, 2:55 AM)
Low50 °F (Jul 24, 5:35 AM)28% (Jul 14, 1:45 PM)29.80 "Hg (Jul 14, 2:50 PM)
Average65 °F67%30.02 "Hg
* Reported Jul 11 12:45 PM — Jul 26 12:45 PM, Milwaukee, Weather by CustomWeather, © 2014

Note: Actual official high and low records may vary slightly from our data, if they occured in-between our weather recording intervals... More about our weather records

Advertising

Milwaukee weather history for previous 24 hours

 ConditionsComfort  
Time TempWeatherWind HumidityBarometerVisibility
12:45 PM
Jul 26
77 °FSunny.6 mph57%29.83 "Hg10 mi
11:45 AM75 °FScattered clouds.5 mph57%29.83 "Hg10 mi
10:45 AM75 °FScattered clouds.5 mph61%29.86 "Hg10 mi
9:45 AM72 °FMore clouds than sun.5 mph65%29.84 "Hg10 mi
8:45 AM70 °FMostly cloudy.6 mph69%29.85 "Hg10 mi
7:45 AM66 °FMore clouds than sun.No wind78%29.86 "Hg10 mi
6:45 AM64 °FMostly cloudy.No wind78%29.85 "Hg10 mi
6:35 AM63 °FOvercast.5 mph83%29.85 "Hg10 mi
6:15 AM63 °FPassing clouds.No wind83%29.86 "Hg10 mi
5:55 AM61 °FPassing clouds.No wind83%29.86 "Hg10 mi
5:35 AM61 °FPassing clouds.3 mph83%29.86 "Hg10 mi
5:15 AM61 °FPassing clouds.No wind83%29.86 "Hg10 mi
4:50 AM61 °FPassing clouds.No wind83%29.86 "Hg10 mi
4:35 AM61 °FClear.No wind83%29.85 "Hg10 mi
4:15 AM61 °FClear.No wind88%29.86 "Hg10 mi
3:55 AM61 °FClear.No wind83%29.86 "Hg10 mi
3:35 AM61 °FClear.No wind88%29.87 "Hg10 mi
3:15 AM61 °FClear.No wind88%29.88 "Hg10 mi
2:55 AM61 °FClear.No wind83%29.88 "Hg10 mi
2:35 AM61 °FClear.No wind83%29.88 "Hg10 mi
2:15 AM63 °FClear.3 mph77%29.89 "Hg10 mi
1:55 AM63 °FClear.5 mph83%29.89 "Hg10 mi
1:35 AM63 °FClear.3 mph83%29.89 "Hg10 mi
1:15 AM63 °FClear.5 mph83%29.90 "Hg10 mi
12:55 AM63 °FClear.5 mph83%29.91 "Hg10 mi
12:35 AM64 °FClear.3 mph78%29.91 "Hg10 mi
12:15 AM64 °FClear.5 mph78%29.91 "Hg10 mi
11:55 PM
Jul 25
64 °FPassing clouds.5 mph78%29.91 "Hg10 mi
11:35 PM66 °FPassing clouds.6 mph73%29.90 "Hg10 mi
11:15 PM68 °FOvercast.8 mph69%29.91 "Hg10 mi
10:55 PM68 °FOvercast.6 mph69%29.91 "Hg10 mi
10:35 PM68 °FOvercast.6 mph69%29.91 "Hg10 mi
9:55 PM68 °FOvercast.6 mph69%29.92 "Hg10 mi
9:35 PM68 °FOvercast.8 mph69%29.92 "Hg10 mi
9:15 PM68 °FOvercast.9 mph69%29.92 "Hg10 mi
8:45 PM70 °FOvercast.8 mph64%29.91 "Hg10 mi
7:45 PM72 °FOvercast.8 mph61%29.91 "Hg10 mi
5:45 PM73 °FBroken clouds.8 mph57%29.91 "Hg10 mi
4:45 PM72 °FBroken clouds.8 mph57%29.94 "Hg10 mi
3:45 PM70 °FPartly sunny.7 mph60%29.95 "Hg10 mi
2:45 PM70 °FScattered clouds.8 mph60%29.95 "Hg10 mi
Weather by CustomWeather, © 2014

See weather overviewHow to use our weather pages